TimeCST,TemperatureF,Dew PointF,Humidity,Sea Level PressureIn,VisibilityMPH,Wind Direction,Wind SpeedMPH,Gust SpeedMPH,PrecipitationIn,Events,Conditions,WindDirDegrees,DateUTC
12:15 AM,46.4,39.2,76,30.26,10.0,NE,9.2,23.0,N/A,,Overcast,50,2014-02-07 06:15:00
12:35 AM,46.4,39.2,76,30.26,10.0,NNE,9.2,24.2,N/A,,Overcast,30,2014-02-07 06:35:00
12:55 AM,48.2,39.2,71,30.26,10.0,NE,9.2,17.3,N/A,,Overcast,50,2014-02-07 06:55:00
1:15 AM,48.2,41.0,76,30.25,10.0,NNE,12.7,25.3,N/A,,Overcast,30,2014-02-07 07:15:00
1:35 AM,48.2,39.2,71,30.26,10.0,Variable,6.9,24.2,N/A,,Overcast,0,2014-02-07 07:35:00
1:55 AM,48.2,41.0,76,30.26,10.0,NNE,11.5,21.9,N/A,,Overcast,30,2014-02-07 07:55:00
2:15 AM,46.4,41.0,81,30.26,10.0,NNE,13.8,21.9,N/A,,Overcast,30,2014-02-07 08:15:00
2:35 AM,46.4,41.0,81,30.25,10.0,NNE,13.8,23.0,N/A,,Overcast,30,2014-02-07 08:35:00
2:55 AM,46.4,41.0,81,30.25,10.0,NNE,15.0,24.2,N/A,,Overcast,30,2014-02-07 08:55:00
3:15 AM,44.6,39.2,81,30.24,10.0,NNE,20.7,28.8,N/A,,Overcast,30,2014-02-07 09:15:00
3:35 AM,44.6,39.2,81,30.23,10.0,NNE,24.2,-,N/A,,Overcast,30,2014-02-07 09:35:00
3:55 AM,44.6,39.2,81,30.25,10.0,North,-9999.0,-,N/A,,Overcast,0,2014-02-07 09:55:00
4:15 AM,44.6,39.2,81,30.25,10.0,NNE,17.3,27.6,N/A,,Overcast,30,2014-02-07 10:15:00
4:35 AM,46.4,39.2,76,30.25,10.0,NNE,12.7,28.8,N/A,,Overcast,30,2014-02-07 10:35:00
4:55 AM,44.6,39.2,81,30.25,-9999.0,NNE,17.3,24.2,N/A,,Overcast,30,2014-02-07 10:55:00
5:15 AM,44.6,39.2,81,30.26,10.0,NNE,15.0,25.3,N/A,,Overcast,30,2014-02-07 11:15:00
5:35 AM,44.6,39.2,81,30.25,10.0,NNE,17.3,23.0,N/A,,Overcast,30,2014-02-07 11:35:00
5:55 AM,44.6,37.4,76,30.26,10.0,NNE,12.7,25.3,N/A,,Overcast,30,2014-02-07 11:55:00
6:15 AM,46.4,37.4,71,30.26,10.0,NE,11.5,18.4,N/A,,Overcast,40,2014-02-07 12:15:00
6:35 AM,44.6,37.4,76,30.27,10.0,NNE,11.5,24.2,N/A,,Overcast,30,2014-02-07 12:35:00
6:55 AM,46.4,37.4,71,30.27,10.0,NE,9.2,19.6,N/A,,Overcast,50,2014-02-07 12:55:00
7:15 AM,46.4,39.2,76,30.26,10.0,NE,9.2,21.9,N/A,,Overcast,50,2014-02-07 13:15:00
7:35 AM,46.4,39.2,76,30.28,10.0,NNE,8.1,18.4,N/A,,Overcast,30,2014-02-07 13:35:00
7:55 AM,46.4,39.2,76,30.28,10.0,NNE,10.4,16.1,N/A,,Overcast,30,2014-02-07 13:55:00
8:15 AM,46.4,39.2,76,30.29,10.0,NNE,11.5,19.6,N/A,,Overcast,30,2014-02-07 14:15:00
8:35 AM,46.4,41.0,81,30.29,10.0,NNE,8.1,15.0,N/A,,Overcast,20,2014-02-07 14:35:00
8:55 AM,48.2,41.0,76,30.30,10.0,NNE,9.2,16.1,N/A,,Overcast,20,2014-02-07 14:55:00
9:15 AM,46.4,41.0,81,30.31,10.0,NNE,10.4,21.9,N/A,,Overcast,20,2014-02-07 15:15:00
9:35 AM,48.2,41.0,76,30.30,10.0,NNE,9.2,17.3,N/A,,Overcast,20,2014-02-07 15:35:00
9:55 AM,50.0,41.0,71,30.30,10.0,NNE,11.5,17.3,N/A,,Overcast,30,2014-02-07 15:55:00
10:15 AM,48.2,41.0,76,30.31,10.0,Variable,5.8,18.4,N/A,,Overcast,0,2014-02-07 16:15:00
10:35 AM,48.2,41.0,76,30.31,10.0,NNE,12.7,20.7,N/A,,Overcast,30,2014-02-07 16:35:00
10:55 AM,46.4,41.0,81,30.31,10.0,NNE,12.7,20.7,N/A,,Overcast,20,2014-02-07 16:55:00
11:15 AM,48.2,41.0,76,30.30,10.0,NNE,11.5,17.3,N/A,,Overcast,30,2014-02-07 17:15:00
11:35 AM,50.0,41.0,71,30.28,10.0,NE,8.1,20.7,N/A,,Mostly Cloudy,50,2014-02-07 17:35:00
11:55 AM,48.2,41.0,76,30.26,10.0,ENE,9.2,21.9,N/A,,Partly Cloudy,60,2014-02-07 17:55:00
12:15 PM,50.0,42.8,76,30.25,10.0,Variable,6.9,19.6,N/A,,Clear,0,2014-02-07 18:15:00
12:35 PM,50.0,42.8,76,30.23,9.0,ENE,12.7,21.9,N/A,,Scattered Clouds,70,2014-02-07 18:35:00
12:55 PM,50.0,42.8,76,30.24,10.0,ENE,9.2,19.6,N/A,,Mostly Cloudy,70,2014-02-07 18:55:00
1:15 PM,50.0,42.8,76,30.22,10.0,East,10.4,21.9,N/A,,Overcast,80,2014-02-07 19:15:00
1:35 PM,50.0,42.8,76,30.21,10.0,ENE,10.4,20.7,N/A,,Overcast,70,2014-02-07 19:35:00
1:55 PM,50.0,42.8,76,30.20,10.0,Variable,8.1,16.1,N/A,,Overcast,0,2014-02-07 19:55:00
2:15 PM,50.0,42.8,76,30.20,10.0,Variable,6.9,19.6,N/A,,Overcast,0,2014-02-07 20:15:00
2:35 PM,50.0,42.8,76,30.20,10.0,ENE,8.1,19.6,N/A,,Overcast,70,2014-02-07 20:35:00
2:55 PM,51.8,42.8,71,30.19,10.0,ENE,8.1,18.4,N/A,,Mostly Cloudy,60,2014-02-07 20:55:00
3:15 PM,51.8,42.8,71,30.19,10.0,ENE,9.2,16.1,N/A,,Overcast,70,2014-02-07 21:15:00
3:35 PM,51.8,42.8,71,30.19,10.0,ENE,8.1,23.0,N/A,,Mostly Cloudy,70,2014-02-07 21:35:00
3:55 PM,51.8,44.6,76,30.18,10.0,ENE,11.5,21.9,N/A,,Mostly Cloudy,70,2014-02-07 21:55:00
4:15 PM,51.8,44.6,76,30.18,10.0,ENE,10.4,19.6,N/A,,Overcast,70,2014-02-07 22:15:00
4:35 PM,51.8,44.6,76,30.18,10.0,ENE,12.7,19.6,N/A,,Overcast,70,2014-02-07 22:35:00
4:55 PM,51.8,44.6,76,30.19,10.0,ENE,13.8,19.6,N/A,,Overcast,70,2014-02-07 22:55:00
5:15 PM,51.8,44.6,76,30.19,10.0,East,12.7,18.4,N/A,,Overcast,80,2014-02-07 23:15:00
5:35 PM,51.8,44.6,76,30.19,10.0,East,11.5,19.6,N/A,,Overcast,80,2014-02-07 23:35:00
5:55 PM,51.8,44.6,76,30.19,10.0,East,12.7,-,N/A,,Overcast,80,2014-02-07 23:55:00
6:15 PM,51.8,44.6,76,30.20,10.0,East,12.7,20.7,N/A,,Overcast,80,2014-02-08 00:15:00
6:35 PM,51.8,44.6,76,30.20,10.0,East,12.7,20.7,N/A,,Overcast,80,2014-02-08 00:35:00
6:55 PM,51.8,44.6,76,30.21,10.0,East,9.2,18.4,N/A,,Overcast,80,2014-02-08 00:55:00
7:15 PM,51.8,44.6,76,30.22,10.0,ENE,9.2,18.4,N/A,,Overcast,70,2014-02-08 01:15:00
7:35 PM,53.6,44.6,72,30.21,10.0,East,10.4,20.7,N/A,,Overcast,80,2014-02-08 01:35:00
7:55 PM,53.6,44.6,72,30.22,10.0,East,6.9,16.1,N/A,,Overcast,90,2014-02-08 01:55:00
8:15 PM,53.6,44.6,72,30.20,10.0,East,12.7,-,N/A,,Overcast,80,2014-02-08 02:15:00
8:35 PM,53.6,44.6,72,30.20,10.0,East,13.8,20.7,N/A,,Overcast,80,2014-02-08 02:35:00
8:55 PM,53.6,44.6,72,30.19,10.0,East,16.1,-,N/A,,Overcast,80,2014-02-08 02:55:00
9:15 PM,53.6,44.6,72,30.19,10.0,East,17.3,-,N/A,,Overcast,80,2014-02-08 03:15:00
9:35 PM,53.6,44.6,72,30.19,10.0,East,11.5,-,N/A,,Overcast,90,2014-02-08 03:35:00
9:55 PM,53.6,44.6,72,30.20,10.0,East,13.8,-,N/A,,Overcast,80,2014-02-08 03:55:00
10:15 PM,53.6,44.6,72,30.18,10.0,East,16.1,-,N/A,,Overcast,80,2014-02-08 04:15:00
10:35 PM,53.6,46.4,77,30.18,7.0,East,17.3,-,N/A,,Mostly Cloudy,80,2014-02-08 04:35:00
10:55 PM,53.6,46.4,77,30.17,10.0,East,16.1,-,N/A,,Mostly Cloudy,80,2014-02-08 04:55:00
11:15 PM,55.4,46.4,72,30.16,10.0,ENE,10.4,-,N/A,,Mostly Cloudy,70,2014-02-08 05:15:00
11:35 PM,53.6,46.4,77,30.15,10.0,ENE,13.8,23.0,N/A,,Overcast,60,2014-02-08 05:35:00
11:55 PM,55.4,48.2,77,30.15,10.0,ENE,9.2,17.3,N/A,,Mostly Cloudy,70,2014-02-08 05:55:00